Fernwood, MS

8:31 AM CST on February 19, 2017 (GMT -0600)
McComb-Pike County-Lewis

Weather History for KMCB - October, 2013

Change the Weather History Date:

Wednesday, October 30, 2013

  Actual Average Record
Temperature  
Mean Temperature 68 °F -  
Max Temperature 77 °F 76 °F 88 °F (1951)
Min Temperature 62 °F 51 °F 33 °F (1952)
Cooling Degree Days 4    
Growing Degree Days 18 (Base 50)    
Moisture  
Dew Point 64 °F    
Average Humidity 85    
Maximum Humidity 97    
Minimum Humidity 69    
Precipitation  
Precipitation 0.00 in - - ()
Sea Level Pressure  
Sea Level Pressure 30.13 in    
Wind  
Wind Speed 3 mph (SE)    
Max Wind Speed 13 mph    
Max Gust Speed 18 mph    
Visibility 7 miles    
Events      
Averages and records for this station are not official NWS values.
T = Trace of Precipitation, MM = Missing Value Source: NWS Daily Summary

Daily Weather History Graph

Daily Weather History Graph

Search for Another Location

Airport or City:

Trip Planner

Search our weather history database for the weather conditions in past years. The results will help you decide how hot, cold, wet, or windy it might be!

Date:

Astronomy

Oct. 30, 2013 Rise Set
Actual Time 7:15 AM CDT 6:14 PM CDT
Civil Twilight 6:51 AM CDT 6:39 PM CDT
Nautical Twilight 6:22 AM CDT 7:08 PM CDT
Astronomical Twilight 5:54 AM CDT 7:36 PM CDT
Moon 3:20 AM CDT (10/30) 3:47 PM CDT (10/30)
Length of Visible Light 11h 48m
Length of Day
10h 58m
Waning Crescent, 17% of the Moon is Illuminated
Oct 30
Waning Crescent
Nov 3
New
Nov 9
First Quarter
Nov 17
Full
Nov 25
Last Quarter

Hourly Weather History & Observations

Time (CDT) Temp. Dew Point Humidity Pressure Visibility Wind Dir Wind Speed Gust Speed Precip Events Conditions
12:53 AM 64.0 °F 62.1 °F 93% 30.18 in 4.0 mi SE 3.5 mph - N/A   Clear
1:53 AM 63.0 °F 61.0 °F 93% 30.17 in 4.0 mi Calm Calm - N/A   Clear
2:53 AM 64.0 °F 62.1 °F 93% 30.16 in 6.0 mi Calm Calm - N/A   Clear
3:53 AM 64.0 °F 62.1 °F 93% 30.15 in 5.0 mi Calm Calm - N/A   Clear
4:53 AM 63.0 °F 62.1 °F 97% 30.16 in 5.0 mi Calm Calm - N/A   Clear
5:32 AM 62.6 °F 60.8 °F 94% 30.16 in 2.5 mi Calm Calm - N/A   Clear
5:53 AM 62.1 °F 61.0 °F 96% 30.16 in 2.5 mi Calm Calm - N/A   Clear
6:53 AM 64.0 °F 63.0 °F 96% 30.15 in 2.5 mi Calm Calm - N/A   Clear
7:02 AM 64.4 °F 62.6 °F 94% 30.16 in 3.0 mi SE 3.5 mph - N/A   Clear
7:32 AM 64.4 °F 62.6 °F 94% 30.17 in 2.5 mi Calm Calm - N/A   Clear
7:48 AM 64.4 °F 62.6 °F 94% 30.17 in 3.0 mi Calm Calm - N/A   Clear
7:53 AM 64.0 °F 63.0 °F 96% 30.16 in 3.0 mi SE 3.5 mph - N/A   Clear
8:03 AM 64.4 °F 62.6 °F 94% 30.17 in 2.5 mi Variable 3.5 mph - N/A   Clear
8:35 AM 64.4 °F 62.6 °F 94% 30.18 in 3.0 mi SE 3.5 mph - N/A   Clear
8:53 AM 66.0 °F 64.0 °F 93% 30.18 in 4.0 mi SE 3.5 mph - N/A   Clear
9:53 AM 69.1 °F 64.9 °F 87% 30.18 in 8.0 mi SE 5.8 mph - N/A   Clear
10:53 AM 73.9 °F 64.9 °F 73% 30.20 in 10.0 mi SSE 11.5 mph 17.3 mph N/A   Clear
11:53 AM 73.9 °F 64.9 °F 73% 30.19 in 10.0 mi South 10.4 mph - N/A   Scattered Clouds
12:53 PM 73.9 °F 64.9 °F 73% 30.14 in 9.0 mi SE 10.4 mph - N/A   Partly Cloudy
1:18 PM 73.4 °F 64.4 °F 73% 30.15 in 10.0 mi SSE 12.7 mph 18.4 mph N/A   Mostly Cloudy
1:41 PM 73.4 °F 64.4 °F 73% 30.13 in 10.0 mi SSE 10.4 mph - N/A   Scattered Clouds
1:53 PM 75.0 °F 64.9 °F 71% 30.11 in 10.0 mi SSE 8.1 mph - N/A   Scattered Clouds
2:53 PM 75.9 °F 64.9 °F 69% 30.09 in 10.0 mi Variable 6.9 mph - N/A   Mostly Cloudy
3:01 PM 75.2 °F 64.4 °F 69% 30.10 in 10.0 mi SSE 8.1 mph - N/A   Mostly Cloudy
3:53 PM 75.9 °F 64.9 °F 69% 30.08 in 10.0 mi SE 4.6 mph - N/A   Clear
4:53 PM 75.0 °F 64.0 °F 69% 30.07 in 10.0 mi SSE 8.1 mph - N/A   Clear
5:53 PM 73.0 °F 64.0 °F 73% 30.06 in 9.0 mi Calm Calm - N/A   Clear
6:53 PM 71.1 °F 64.0 °F 78% 30.06 in 10.0 mi Calm Calm - N/A   Clear
7:53 PM 70.0 °F 64.9 °F 84% 30.06 in 8.0 mi SE 4.6 mph - N/A   Clear
8:53 PM 71.1 °F 66.0 °F 84% 30.07 in 7.0 mi SSE 5.8 mph - N/A   Partly Cloudy
9:53 PM 71.1 °F 66.9 °F 87% 30.05 in 10.0 mi SSE 8.1 mph - N/A   Clear
10:53 PM 71.1 °F 66.9 °F 87% 30.05 in 10.0 mi SSE 6.9 mph - N/A   Clear
11:53 PM 70.0 °F 68.0 °F 93% 30.02 in 10.0 mi SSE 6.9 mph - N/A   Mostly Cloudy